Вернуться в каталог

NOAA 16 DEB

АктивенSSO
NORAD 41422·DEBRIS·🇺🇸 United States

Запущен Sep 21, 2000 с Vandenberg Space Force Base

Loading…

Ближайшие Пролёты (ближайшие 24 часа)

TLE

СвежийSource: Space-Track

Эпоха: Sep 14, 2026, 10:32 UTC

1 41422U 00055LB  26257.43931892  .00002193  00000-0  89927-3 0  9997
2 41422  98.7045 334.9128 0012598 274.5865  85.3877 14.28092394546959

Отслеживайте NOAA 16 DEB в реальном времени с AllMySat

Download on the App Store